Weather History for Culpeper, VA

Change the Weather History Date:

Tuesday, March 4, 2014

  Actual Average (KOMH) Record (KOMH)
Temperature  
Mean Temperature 12 °F -  
Max Temperature 30 °F 51 °F 76 °F (1974)
Min Temperature -5 °F 31 °F 1 °F (2014)
Degree Days  
Heating Degree Days 52    
Moisture  
Dew Point 0 °F    
Average Humidity 60    
Maximum Humidity 86    
Minimum Humidity 23    
Precipitation  
Precipitation 0.00 in - - ()
Sea Level Pressure  
Sea Level Pressure 30.33 in    
Wind  
Wind Speed 0 mph (NE)    
Max Wind Speed 5 mph    
Max Gust Speed -    
Visibility 10 miles    
Events      
Averages and records for this station are not official NWS values.
T = Trace of Precipitation, MM = Missing Value Source: NWS Daily Summary

Daily Weather History Graph

Daily Weather History Graph

Search for Another Location

Airport:

Trip Planner

Search our weather history database for the weather conditions in past years. The results will help you decide how hot, cold, wet, or windy it might be!

Date:

Astronomy

Mar. 04, 2014 Rise Set
Actual Time 6:39 AM EST 6:07 PM EST
Civil Twilight 6:12 AM EST 6:34 PM EST
Nautical Twilight 5:42 AM EST 7:04 PM EST
Astronomical Twilight 5:11 AM EST 7:35 PM EST
Moon 8:27 AM EST (3/4) 10:09 PM EST (3/4)
Length of Visible Light 12h 21m
Length of Day
11h 28m
Waxing Crescent, 14% of the Moon is Illuminated
Mar 4
Waxing Crescent
Mar 8
First Quarter
Mar 16
Full
Mar 23
Last Quarter
Mar 30
New

Hourly Weather History & Observations

Time (EST) Temp. Windchill Dew Point Humidity Pressure Visibility Wind Dir Wind Speed Gust Speed Precip Events Conditions
12:15 AM -5.8 °F - -11.2 °F 77% 30.34 in 10.0 mi Calm Calm - N/A   Clear
12:35 AM -2.2 °F - -9.4 °F 71% 30.35 in 10.0 mi Calm Calm - N/A   Clear
12:55 AM -0.4 °F - -5.8 °F 78% 30.34 in 10.0 mi Calm Calm - N/A   Clear
1:15 AM -0.4 °F - -7.6 °F 72% 30.34 in 10.0 mi Calm Calm - N/A   Clear
1:35 AM -4.0 °F - -11.2 °F 71% 30.34 in 2.0 mi Calm Calm - N/A   Haze
1:55 AM -2.2 °F - -7.6 °F 78% 30.34 in 10.0 mi Calm Calm - N/A   Clear
2:15 AM -5.8 °F - -11.2 °F 77% 30.34 in 10.0 mi Calm Calm - N/A   Clear
2:35 AM -4.0 °F - -9.4 °F 78% 30.35 in 10.0 mi Calm Calm - N/A   Clear
2:55 AM -2.2 °F - -7.6 °F 78% 30.34 in 10.0 mi Calm Calm - N/A   Clear
3:10 AM -4.0 °F - -9.4 °F 78% 30.34 in 10.0 mi Calm Calm - N/A   Clear
3:35 AM -2.2 °F - -9.4 °F 71% 30.34 in 10.0 mi Calm Calm - N/A   Clear
3:55 AM -2.2 °F - -9.4 °F 71% 30.34 in 10.0 mi Calm Calm - N/A   Clear
4:15 AM -4.0 °F - -9.4 °F 78% 30.35 in 10.0 mi Calm Calm - N/A   Clear
4:35 AM -5.8 °F - -11.2 °F 77% 30.36 in 10.0 mi Calm Calm - N/A   Clear
4:55 AM -5.8 °F - -11.2 °F 77% 30.37 in 10.0 mi Calm Calm - N/A   Clear
5:15 AM -2.2 °F - -9.4 °F 71% 30.38 in 10.0 mi Calm Calm - N/A   Clear
5:35 AM -2.2 °F - -9.4 °F 71% 30.38 in 10.0 mi Calm Calm - N/A   Clear
5:38 AM -2.2 °F - -9.4 °F 71% 30.39 in 10.0 mi Calm Calm - N/A   Clear
5:55 AM -2.2 °F - -9.4 °F 71% 30.38 in 10.0 mi Calm Calm - N/A   Clear
6:15 AM -2.2 °F - -9.4 °F 71% 30.39 in 10.0 mi Calm Calm - N/A   Clear
6:35 AM -2.2 °F - -7.6 °F 78% 30.39 in 10.0 mi Calm Calm - N/A   Clear
6:40 AM -2.2 °F - -7.6 °F 78% 30.40 in 10.0 mi Calm Calm - N/A   Clear
6:55 AM -2.2 °F - -7.6 °F 78% 30.40 in 10.0 mi Calm Calm - N/A   Clear
7:15 AM -0.4 °F -10.4 °F -5.8 °F 78% 30.40 in 10.0 mi NNE 4.6 mph - N/A   Clear
7:35 AM 1.4 °F -8.3 °F -2.2 °F 85% 30.40 in 10.0 mi North 4.6 mph - N/A   Clear
7:50 AM 3.2 °F - -2.2 °F 78% 30.41 in 10.0 mi Calm Calm - N/A   Clear
8:15 AM 6.8 °F -2.0 °F 3.2 °F 85% 30.41 in 10.0 mi NNE 4.6 mph - N/A   Clear
8:35 AM 8.6 °F - 5.0 °F 85% 30.42 in 10.0 mi Calm Calm - N/A   Clear
8:55 AM 12.2 °F - 8.6 °F 85% 30.42 in 10.0 mi Calm Calm - N/A   Clear
9:15 AM 14.0 °F - 10.4 °F 86% 30.42 in 10.0 mi Calm Calm - N/A   Clear
9:35 AM 15.8 °F - 12.2 °F 86% 30.43 in 10.0 mi Calm Calm - N/A   Clear
9:55 AM 19.4 °F - 6.8 °F 58% 30.43 in 10.0 mi Calm Calm - N/A   Clear
10:15 AM 21.2 °F 14.9 °F 1.4 °F 42% 30.42 in 10.0 mi East 4.6 mph - N/A   Clear
10:35 AM 21.2 °F - 1.4 °F 42% 30.42 in 10.0 mi Calm Calm - N/A   Clear
10:55 AM 21.2 °F - 1.4 °F 42% 30.41 in 10.0 mi Calm Calm - N/A   Clear
11:15 AM 24.8 °F - 1.4 °F 36% 30.39 in 10.0 mi Calm Calm - N/A   Clear
11:35 AM 24.8 °F - 1.4 °F 36% 30.39 in 10.0 mi Calm Calm - N/A   Clear
11:55 AM 24.8 °F - 3.2 °F 40% 30.38 in 10.0 mi Calm Calm - N/A   Clear
12:15 PM 24.8 °F 20.5 °F 1.4 °F 36% 30.38 in 10.0 mi NNW 3.5 mph - N/A   Clear
12:35 PM 24.8 °F - 1.4 °F 36% 30.37 in 10.0 mi Calm Calm - N/A   Clear
12:55 PM 26.6 °F - 1.4 °F 34% 30.35 in 10.0 mi Calm Calm - N/A   Clear
1:15 PM 26.6 °F - 5.0 °F 40% 30.33 in 10.0 mi Calm Calm - N/A   Clear
1:35 PM 26.6 °F 22.6 °F 1.4 °F 34% 30.33 in 10.0 mi North 3.5 mph - N/A   Clear
1:55 PM 28.4 °F - -0.4 °F 29% 30.33 in 10.0 mi Calm Calm - N/A   Clear
2:15 PM 28.4 °F - -0.4 °F 29% 30.32 in 10.0 mi Calm Calm - N/A   Clear
2:35 PM 30.2 °F - -0.4 °F 27% 30.31 in 10.0 mi Calm Calm - N/A   Clear
2:55 PM 30.2 °F 25.4 °F -0.4 °F 27% 30.30 in 10.0 mi ESE 4.6 mph - N/A   Clear
3:15 PM 30.2 °F 25.4 °F -0.4 °F 27% 30.30 in 10.0 mi SE 4.6 mph - N/A   Clear
3:35 PM 30.2 °F 26.7 °F -0.4 °F 27% 30.30 in 10.0 mi South 3.5 mph - N/A   Clear
3:55 PM 30.2 °F - -2.2 °F 25% 30.29 in 10.0 mi Calm Calm - N/A   Clear
4:15 PM 30.2 °F - -2.2 °F 25% 30.28 in 10.0 mi Calm Calm - N/A   Clear
4:35 PM 30.2 °F - -2.2 °F 25% 30.28 in 10.0 mi Calm Calm - N/A   Clear
4:55 PM 30.2 °F - -4.0 °F 23% 30.28 in 10.0 mi Calm Calm - N/A   Clear
5:15 PM 30.2 °F - -2.2 °F 25% 30.28 in 10.0 mi Calm Calm - N/A   Clear
5:35 PM 30.2 °F - -2.2 °F 25% 30.28 in 10.0 mi Calm Calm - N/A   Clear
5:55 PM 28.4 °F - 1.4 °F 31% 30.28 in 10.0 mi Calm Calm - N/A   Clear
6:15 PM 23.0 °F - 5.0 °F 46% 30.27 in 10.0 mi Calm Calm - N/A   Clear
6:35 PM 21.2 °F - 6.8 °F 54% 30.27 in 10.0 mi Calm Calm - N/A   Clear
6:55 PM 19.4 °F - 6.8 °F 58% 30.27 in 10.0 mi Calm Calm - N/A   Clear
7:15 PM 17.6 °F - 8.6 °F 68% 30.28 in 10.0 mi Calm Calm - N/A   Clear
7:35 PM 17.6 °F - 8.6 °F 68% 30.27 in 10.0 mi Calm Calm - N/A   Clear
7:55 PM 17.6 °F - 8.6 °F 68% 30.26 in 10.0 mi Calm Calm - N/A   Clear
8:15 PM 17.6 °F - 8.6 °F 68% 30.26 in 10.0 mi Calm Calm - N/A   Clear
8:35 PM 17.6 °F - 8.6 °F 68% 30.26 in 10.0 mi Calm Calm - N/A   Clear
8:55 PM 17.6 °F - 8.6 °F 68% 30.27 in 10.0 mi Calm Calm - N/A   Clear
9:15 PM 17.6 °F - 8.6 °F 68% 30.28 in 10.0 mi Calm Calm - N/A   Clear
9:35 PM 17.6 °F - 10.4 °F 73% 30.27 in 10.0 mi Calm Calm - N/A   Clear
9:55 PM 17.6 °F - 10.4 °F 73% 30.27 in 10.0 mi Calm Calm - N/A   Clear
10:15 PM 17.6 °F - 10.4 °F 73% 30.27 in 10.0 mi Calm Calm - N/A   Clear
10:35 PM 15.8 °F - 10.4 °F 79% 30.26 in 10.0 mi Calm Calm - N/A   Clear
10:55 PM 15.8 °F - 8.6 °F 73% 30.26 in 10.0 mi Calm Calm - N/A   Clear
11:15 PM 17.6 °F - 10.4 °F 73% 30.25 in 10.0 mi Calm Calm - N/A   Clear
11:35 PM 15.8 °F 10.2 °F 8.6 °F 73% 30.24 in 10.0 mi North 3.5 mph - N/A   Clear
11:55 PM 15.8 °F 10.2 °F 10.4 °F 79% 30.24 in 10.0 mi North 3.5 mph - N/A   Clear